www.pogodaiklimat.ru

Погода и климат >> Архив погоды >> Украина >> Жашков


ПОГОДА в Жашкове

  • Прогноз погоды в Жашкове
  • Монитор погоды в Жашкове
  • Климат города

АРХИВ ПОГОДЫ в Жашкове

Время (UTC), дата Ветер
(напр.,м/с)
 
Видим.   Явления Облачность Т
(С)
Тd
(С)
f
(%)
Тe
(С)
Тes
(С)
Комфортность P
(гПа)
Po
(гПа)
Тmin
(С)
Tmax
(С)
R
(мм)
R24
(мм)
S
(см)
00 20.09 штиль 0 16 км зарница 4 балла +12.0 +8.5 79 0.0
03 20.09 СВ 2 16 км 10 баллов +12.3 +8.9 80 0.0
06 20.09 СВ 2 20 км 7 баллов +14.9 +6.7 58 0.0 +12.0 0.5
09 20.09 СВ 2 20 км 9/5 600 м
[Cb cap Ac As]
+19.0 +8.7 51 +20 +22 1013.2 1013.0
12 20.09 С 1 20 км 2 балла +23.5 +9.8 42 1349.7
15 20.09 СЗ 1 20 км 8/0
[Ac lent]
+23.2 +11.6 48 +26 +26 жарко 1010.4 1010.0
18 20.09 штиль 0 20 км ясно +19.4 +10.7 57 0.0 +25.4
21 20.09 СВ 1 15 км 5/0
[Ac trans]
+17.5 +9.8 61 +19 +19 -337.2 1009.0
00 21.09 штиль 0 14 км 4 балла +16.6 +10.2 66 0.0
03 21.09 штиль 0 14 км 3/0
[Ac trans]
+16.5 +12.8 79 +16 +16 1008.5 1009.0
06 21.09 штиль 0 10 км 5 баллов +16.5 +13.8 84 +16 +18 1008.8 982.7 +15.5
09 21.09 штиль 0 20 км 6/0
[Ac cast Ci ing]
+24.5 +16.2 60 +28 +36 душно 1007.0 1007.0
12 21.09 Ю 1 20 км 5 баллов +26.7 +16.3 53 0.0
15 21.09 З 1 20 км 9/0
[Ac cast Ci ing]
+26.5 +15.4 51 +30 +30 душно 1006.4 1006.0
18 21.09 штиль 0 20 км зарница ясно +20.6 +18.0 85 1343.9 +28.5
21 21.09 СЗ 1 18 км ясно +18.8 +16.5 86 +21 +21 комфорт 1008.5 1009.0
00 22.09 штиль 0 8000 м дымка ясно +16.6 +15.6 94 0.0
03 22.09 ЮЗ 1 9000 м дымка 10 баллов +16.8 +15.3 91 0.0
06 22.09 штиль 0 10 км 10 баллов +17.4 +15.7 90 0.0 +16.0
09 22.09 С 1 20 км 9/0
[Ac trans Ci ing]
+23.4 +15.1 60 +28 +33 душно 1008.5 1009.0
12 22.09 В 3 20 км 9 баллов +27.4 +9.2 32 1345.4
15 22.09 Ю 4 20 км 6/3 600 м
[Sc Ci sp]
+19.9 +14.6 72 +22 +22 комфорт 1008.6 1009.0
18 22.09 З 2 14 км зарница 6 баллов +17.7 +12.8 73 0.0 +28.1
21 22.09 штиль 0 13 км в посл. час ливневой дождь 6 баллов +15.2 +14.6 96 0.0
00 23.09 штиль 0 9000 м дымка 7 баллов +13.1 +12.2 94 0.0 32.0
03 23.09 штиль 0 9000 м дымка 2 балла +13.1 +12.6 97 0.0
06 23.09 СВ 1 10 км 7 баллов +13.4 +11.6 89 0.0 +13.1 3
09 23.09 ЮВ 1 10 км 10/0
[As trans]
+16.5 +13.3 81 +17 +21 0.1 1019.0
12 23.09 штиль 0 20 км 10 баллов +17.9 +11.5 66 0.0
15 23.09 В 2 4000 м ливневой дождь 10 баллов +13.5 +12.6 94 0.0
18 23.09 В 1 12 км в посл. час ливневой дождь 10 баллов +12.1 +10.3 89 0.0 +19.2 8
21 23.09 штиль 0 8000 м слабый ливневой дождь 10 баллов +12.0 +11.2 95 0.0
00 24.09 штиль 0 8000 м дымка 10 баллов +11.3 +10.7 96 0.0 0.9
03 24.09 В 1 7000 м дымка 10 баллов +12.1 +11.5 96 0.0
06 24.09 В 2 4000 м слабый ливневой дождь 10 баллов +12.5 +12.0 97 0.0 +11.0 5
09 24.09 В 2 10 км в посл. час ливневой дождь 10 баллов +13.3 +12.0 92 0.0
12 24.09 В 1 10 км 10 баллов +14.3 +12.7 90 0.0 2.0
15 24.09 СВ 1 10 км 7 баллов +14.9 +12.8 87 0.0
18 24.09 штиль 0 8000 м дымка ясно +13.1 +12.5 96 0.0 +15.4 2
21 24.09 штиль 0 8000 м дымка ясно +12.4 +11.6 95 +12 +12 1025.0
00 25.09 штиль 0 7000 м дымка 5 баллов +12.3 +11.7 96 0.0
03 25.09 штиль 0 8000 м дымка 7 баллов +12.4 +11.3 93 0.0
06 25.09 штиль 0 10 км дымка 10 баллов +12.4 +11.0 91 0.0 +12.3 2
09 25.09 В 1 20 км 7 баллов +19.2 +13.4 69 0.0
12 25.09 штиль 0 20 км 5 баллов +21.8 +10.6 49 0.0 0.5
15 25.09 В 1 20 км 3/0
[Ci]
+19.6 +7.8 46 +22 +22 комфорт 1027.4 1027.0
18 25.09 штиль 0 19 км 2 балла +14.9 +8.8 67 0.0 +22.2 0.5
21 25.09 СВ 1 18 км ясно +14.5 +8.1 65 +15 +15 1029.3 1029.0
00 26.09 штиль 0 18 км ясно +12.7 +7.4 70 0.0
03 26.09 СВ 1 17 км 3/0
[Ci sp]
+10.7 +6.7 76 +10 +10 1030.4 1030.0
06 26.09 СВ 1 20 км 4 балла +11.2 +6.7 74 0.0 +9.8
09 26.09 СВ 3 20 км 4/0
[Ci fib]
+15.9 +4.1 45 +16 +21 1031.3 1031.0
12 26.09 В 3 20 км 2 балла +17.6 +2.3 36 0.0
15 26.09 штиль 0 20 км 3/0
[Ci fib]
+16.3 +3.2 41 +16 +17 1030.4 1030.0
18 26.09 штиль 0 20 км 2 балла +12.5 +4.2 57 0.0 +18.1

 

Местоположение метеостанции Жашков (Черкасская область, Украина): широта 49.25 долгота 30.10 высота над уровнем моря 224 м.

В архиве по умолчанию представлена погода в Жашкове за последнюю неделю. Архивные данные за месяц целиком и за предыдущие месяцы, начиная с января 2011 года, Вы можете получить, выбрав интересующий диапазон дат из раскрывающегося списка и нажав кнопку "Ввод!".

Внимание! Время в таблицах - всемирное. Для получения местного времени необходимо прибавить поправку, которая в Жашкове равна 2 ч.

Смотрите также архив погоды в соседних городах и на ближайших метеорологических станциях:

Погода в Умани (Черкасская область, Украина) (54 км)
Погода в Белой Церкви (Киевская область, Украина) (56 км)
Погода в Звенигородке (Черкасская область, Украина) (61 км)
Погода в Гайсине (Винницкая область, Украина) (71 км)
Погода в Мироновке (Киевская область, Украина) (80 км)
Погода в Фастове (Киевская область, Украина) (93 км)
Погода в Гайвороне (Кировоградская область, Украина) (102 км)
Погода в Виннице (Винницкая область, Украина) (109 км)
Погода в Белополе (Винницкая область, Украина) (109 км)
Погода в Каневе (Черкасская область, Украина) (116 км)

Пояснения к столбцам:

Ветер - указаны скорость ветра в м/с - средняя за 10 мин, порывы в срок и между сроками (в фигурных скобках) и направление, откуда дует ветер: С - северный, СВ - северо-восточный, В - восточный, ЮВ - юго-восточный, Ю - южный, ЮЗ - юго-западный, З - западный, СЗ - северо-западный.
Видимость - горизонтальная дальность видимости в метрах или километрах. При видимости от 1 до 10 км при отсутствии осадков обычно наблюдается дымка, при ухудшении видимости до 1 км и менее - туман. В сухую погоду видимость может ухудшаться дымом, пылью или мглою.
Явления - указаны атмосферные явления, наблюдавшиеся в срок или в последний час перед сроком; фигурными скобками обозначены явления, наблюдавшиеся между сроками (за 1-3 часа до срока); квадратными скобками обозначены град или гололедные отложения с указанием их диаметра в мм.
Облачность - указаны через наклонную черту общая и нижняя облачность в баллах и высота нижней границы облаков в метрах; квадратными скобками обозначены формы облаков: Ci - перистые, Cs - перисто-слоистые, Cc - перисто-кучевые, Ac - высококучевые, As - высокослоистые, Sc - слоисто-кучевые, Ns - слоисто-дождевые, Cu - кучевые, Cb - кучево-дождевые. Подробнее классификацию облаков см. в Атласе облаков (PDF).
T - Температура воздуха - температура, измеренная на высоте 2 м над землей.
Td - Температура точки росы - температура, при понижении до которой содержащийся в воздухе водяной пар достигнет насыщения.
f - Относительная влажность воздуха - влажноcть воздуха, измеренная на высоте 2 м над землей.
Te - Эффективная температура - температура, которую ощущает одетый по сезону человек в тени. Характеристика душности погоды. При расчете учитывается влияние влажности воздуха и скорости ветра на теплоощущения человека.
Tes - Эффективная температура на солнце - температура, которую ощущает человек, с поправкой на солнечный нагрев. Характеристика знойности погоды. Зависит от высоты солнца над горизонтом, облачности и скорости ветра. Ночью, в пасмурную погоду, а также при ветре 12 м/с и более поправка равна нулю.
P - Атмосферное давление - приведенное к уровню моря атмосферное давление.
Po - Атмосферное давление - измеренное на уровне метеостанции атмосферное давление.
Tmin - Минимальная температура - минимум температуры воздуха на высоте 2 м над землей.
Tmax - Максимальная температура - максимум температуры воздуха на высоте 2 м над землей.
R - Количество осадков - Количество выпавших осадков за период времени, мм. При наведении курсора мыши на число - период времени, за который выпало указанное количество осадков.
R24 - Количество осадков - Количество выпавших осадков за 24 часа, мм.
S - Снежный покров - Высота снежного покрова, см. При наведении курсора мыши на число - состояние снежного покрова и степень покрытия местности в баллах.